GW7398 Weather Reports


Display with metric or nautical units.
time (UTC)temp
F
wind
direction
speed
MPH
gust
MPH
rain 1hr
in
rain 24hr
in
rain mn
in
humidity
%
barometer
mb
20260509042521 57 87 1.0 3.0 0.00 0.00 0.00 59 1022.3
20260509041522 57 104 3.0 9.0 0.00 0.00 0.00 58 1022.2
20260509040523 57 100 1.0 3.0 0.00 0.00 0.00 57 1022.1
20260509035524 58 102 1.0 4.0 0.00 0.00 0.00 57 1022.1
20260509034535 58 112 2.0 8.0 0.00 0.00 0.00 57 1022.0
20260509033516 58 111 3.0 6.0 0.00 0.00 0.00 58 1021.9
20260509032537 58 86 1.0 5.0 0.00 0.00 0.00 58 1021.8
20260509031519 58 95 2.0 6.0 0.00 0.00 0.00 57 1021.7
20260509030520 58 103 2.0 6.0 0.00 0.00 0.00 57 1021.6
20260509025522 59 109 2.0 6.0 0.00 0.00 0.00 57 1021.6
20260509024522 59 93 2.0 6.0 0.00 0.00 0.00 56 1021.5
20260509023523 59 90 2.0 5.0 0.00 0.00 0.00 55 1021.5
20260509022524 59 104 3.0 6.0 0.00 0.00 0.00 55 1021.5
20260509021515 59 313 2.0 5.0 0.00 0.00 0.00 54 1021.5
20260509020517 60 129 2.0 5.0 0.00 0.00 0.00 54 1021.5
20260509015517 60 103 2.0 7.0 0.00 0.00 0.00 53 1021.4
20260509014518 59 91 1.0 9.0 0.00 0.00 0.00 54 1021.5
20260509013520 60 101 4.0 9.0 0.00 0.00 0.00 54 1021.4
20260509012540 60 63 2.0 5.0 0.00 0.00 0.00 52 1021.2
20260509011521 61 326 2.0 3.0 0.00 0.00 0.00 51 1021.2
20260509011018 61 93 3.0 6.0 0.00 0.00 0.00 51 1021.2
20260509010039 62 100 2.0 5.0 0.00 0.00 0.00 49 1021.1
20260509005021 62 224 2.0 5.0 0.00 0.00 0.00 49 1021.1
20260509004022 62 95 5.0 10.0 0.00 0.00 0.00 48 1021.1
20260509003023 62 107 4.0 9.0 0.00 0.00 0.00 48 1021.0
20260509002023 62 72 2.0 7.0 0.00 0.00 0.00 49 1021.0
20260509001024 62 94 3.0 7.0 0.00 0.00 0.00 49 1021.2
20260509000015 61 46 2.0 5.0 0.00 0.00 0.00 50 1021.2
20260508235016 62 283 3.0 5.0 0.00 0.00 0.00 49 1021.2
20260508234017 61 94 5.0 10.0 0.00 0.00 0.00 50 1021.1
20260508233018 61 92 4.0 10.0 0.00 0.00 0.00 51 1021.0
20260508232018 61 91 2.0 6.0 0.00 0.00 0.00 50 1021.0
20260508231020 61 100 3.0 11.0 0.00 0.00 0.00 53 1021.0
20260508230021 60 102 5.0 11.0 0.00 0.00 0.00 52 1021.2
20260508225022 61 85 3.0 7.0 0.00 0.00 0.00 52 1021.0
20260508224023 61 105 2.0 5.0 0.00 0.00 0.00 51 1020.8
20260508223024 61 90 3.0 7.0 0.00 0.00 0.00 52 1020.7
20260508222025 61 97 4.0 9.0 0.00 0.00 0.00 51 1020.8
20260508221016 61 95 4.0 10.0 0.00 0.00 0.00 52 1020.8
20260508220017 62 82 2.0 7.0 0.00 0.00 0.00 51 1020.6
20260508214016 61 106 2.0 5.0 0.00 0.00 0.00 52 1020.4
20260508213016 61 90 3.0 7.0 0.00 0.00 0.00 53 1020.6
20260508212017 60 275 2.0 6.0 0.00 0.00 0.00 54 1020.7
20260508211019 60 98 4.0 11.0 0.00 0.00 0.00 55 1020.6
20260508210020 60 102 5.0 11.0 0.00 0.00 0.00 56 1020.4
20260508205020 59 105 4.0 11.0 0.00 0.00 0.00 58 1020.4
20260508204021 58 101 4.0 10.0 0.00 0.00 0.00 59 1020.4
20260508203042 59 109 4.0 11.0 0.00 0.00 0.00 59 1020.3
20260508202023 59 94 4.0 11.0 0.00 0.00 0.00 59 1020.1
20260508201024 58 113 2.0 12.0 0.00 0.00 0.00 60 1020.0
20260508200025 58 101 5.0 10.0 0.00 0.00 0.00 60 1020.0
20260508195016 59 110 3.0 8.0 0.00 0.00 0.00 60 1019.9
20260508194037 59 107 5.0 11.0 0.00 0.00 0.00 60 1019.8
20260508193018 59 103 4.0 13.0 0.00 0.00 0.00 61 1019.6
20260508192019 58 99 2.0 8.0 0.00 0.00 0.00 61 1019.5
20260508191020 58 100 3.0 6.0 0.00 0.00 0.00 64 1019.5
20260508190021 57 80 3.0 7.0 0.00 0.00 0.00 68 1019.2
20260508185022 58 97 3.0 9.0 0.00 0.00 0.00 67 1019.3
20260508184022 58 105 3.0 9.0 0.00 0.00 0.00 65 1019.1
20260508183023 58 110 3.0 8.0 0.00 0.00 0.00 67 1018.9
20260508182024 58 98 3.0 10.0 0.00 0.00 0.00 67 1019.0
20260508181025 57 105 3.0 9.0 0.00 0.00 0.00 68 1018.9
20260508180056 57 106 3.0 11.0 0.00 0.00 0.00 68 1018.7
20260508175017 57 107 3.0 12.0 0.00 0.00 0.00 68 1018.7
20260508174018 58 96 3.0 7.0 0.00 0.00 0.00 67 1018.5
20260508173020 59 105 4.0 9.0 0.00 0.00 0.00 67 1018.4
20260508172020 59 115 3.0 6.0 0.00 0.00 0.00 66 1018.5
20260508171021 59 107 2.0 4.0 0.00 0.00 0.00 65 1018.3
20260508170042 59 103 3.0 10.0 0.00 0.00 0.00 64 1018.1
20260508165023 59 100 4.0 10.0 0.00 0.00 0.00 65 1017.9
20260508164024 59 115 3.0 9.0 0.00 0.00 0.00 65 1017.9
20260508163025 58 92 3.0 9.0 0.00 0.00 0.00 66 1017.8
20260508162015 58 106 3.0 9.0 0.00 0.00 0.00 66 1017.9
20260508161017 58 92 3.0 7.0 0.00 0.00 0.00 66 1017.7
20260508160017 58 95 3.0 6.0 0.00 0.00 0.00 66 1017.6
20260508155018 58 112 2.0 4.0 0.00 0.00 0.00 68 1017.5
20260508154039 57 84 2.0 5.0 0.00 0.00 0.00 69 1017.4
20260508153020 57 88 2.0 6.0 0.00 0.00 0.00 69 1017.7
20260508152042 57 96 1.0 4.0 0.00 0.00 0.00 69 1017.7
20260508151022 57 110 2.0 4.0 0.00 0.00 0.00 68 1017.5
20260508150023 57 99 2.0 6.0 0.00 0.00 0.00 69 1017.4
20260508145024 57 95 1.0 5.0 0.00 0.00 0.00 69 1017.5
20260508144024 57 103 1.0 4.0 0.00 0.00 0.00 70 1017.2
20260508143016 57 92 2.0 5.0 0.00 0.00 0.00 69 1017.0
20260508142017 57 111 3.0 8.0 0.00 0.00 0.00 69 1016.9
20260508141017 57 86 1.0 3.0 0.00 0.00 0.00 70 1016.9
20260508140059 57 103 2.0 4.0 0.00 0.00 0.00 69 1016.8
20260508135019 57 96 0.0 7.0 0.00 0.00 0.00 69 1016.8
20260508134020 57 102 2.0 7.0 0.00 0.00 0.00 68 1016.9
20260508133022 57 104 2.0 6.0 0.00 0.00 0.00 68 1016.7
20260508132023 57 104 1.0 3.0 0.00 0.00 0.00 68 1016.5
20260508131044 58 106 3.0 7.0 0.00 0.00 0.00 68 1016.6
20260508130024 57 118 0.0 3.0 0.00 0.00 0.00 70 1016.5
20260508125015 57 276 0.0 2.0 0.00 0.00 0.00 70 1016.5
20260508124037 57 100 1.0 4.0 0.00 0.00 0.00 70 1016.4
20260508123018 57 50 1.0 3.0 0.00 0.00 0.00 70 1016.2
20260508122019 58 103 1.0 4.0 0.00 0.00 0.00 69 1016.4
20260508121021 58 105 1.0 4.0 0.00 0.00 0.00 70 1016.4
20260508120022 58 94 0.0 3.0 0.00 0.00 0.00 69 1016.2
20260508115023 58 84 1.0 3.0 0.00 0.00 0.00 69 1016.2
20260508114023 58 93 1.0 4.0 0.00 0.00 0.00 68 1016.1
20260508113025 58 116 1.0 3.0 0.00 0.00 0.00 68 1016.2
20260508112016 58 49 0.0 3.0 0.00 0.00 0.00 67 1016.0
20260508111038 58 79 0.0 2.0 0.00 0.00 0.00 67 1016.0
20260508110039 58 71 1.0 4.0 0.00 0.00 0.00 66 1016.0
20260508105020 58 74 1.0 3.0 0.00 0.00 0.00 66 1016.0
20260508104041 58 107 2.0 5.0 0.00 0.00 0.00 66 1016.1
20260508103022 58 101 1.0 4.0 0.00 0.00 0.00 66 1016.0
20260508102023 58 84 1.0 4.0 0.00 0.00 0.00 66 1016.0
20260508101024 58 57 1.0 3.0 0.00 0.00 0.00 66 1016.2
20260508100015 58 188 0.0 2.0 0.00 0.00 0.00 66 1016.0
20260508095016 58 284 0.0 1.0 0.00 0.00 0.00 67 1016.0
20260508094037 58 88 1.0 3.0 0.00 0.00 0.00 67 1016.0
20260508093019 58 116 1.0 4.0 0.00 0.00 0.00 67 1016.0
20260508092020 58 244 0.0 2.0 0.00 0.00 0.00 66 1016.0
20260508091020 58 308 0.0 3.0 0.00 0.00 0.00 65 1016.0
20260508090021 59 37 1.0 4.0 0.00 0.00 0.00 65 1016.0
20260508085043 59 197 0.0 2.0 0.00 0.00 0.00 64 1016.1
20260508084044 59 59 0.0 2.0 0.00 0.00 0.00 65 1016.1
20260508083025 58 91 1.0 5.0 0.00 0.00 0.00 65 1016.2
20260508082015 58 100 1.0 4.0 0.00 0.00 0.00 65 1016.1
20260508081016 58 95 1.0 4.0 0.00 0.00 0.00 65 1016.1
20260508080017 58 131 0.0 3.0 0.00 0.00 0.00 65 1016.2
20260508075018 58 104 1.0 4.0 0.00 0.00 0.00 65 1016.3
20260508074020 58 224 0.0 2.0 0.00 0.00 0.00 65 1016.5
20260508073021 58 89 0.0 3.0 0.00 0.00 0.00 65 1016.5
20260508072022 58 105 2.0 3.0 0.00 0.00 0.00 65 1016.5
20260508071024 58 106 1.0 3.0 0.00 0.00 0.00 65 1016.6
20260508070015 58 89 3.0 6.0 0.00 0.00 0.00 66 1016.4
20260508065016 58 98 2.0 6.0 0.00 0.00 0.00 66 1016.6
20260508064017 58 88 2.0 4.0 0.00 0.00 0.00 66 1016.6
20260508063019 59 95 2.0 5.0 0.00 0.00 0.00 66 1016.6
20260508062020 59 93 2.0 4.0 0.00 0.00 0.00 65 1016.6
20260508061041 59 99 2.0 6.0 0.00 0.00 0.00 65 1016.5
20260508060022 59 69 2.0 4.0 0.00 0.00 0.00 65 1016.7
20260508055545 59 100 2.0 6.0 0.00 0.00 0.00 64 1016.6
20260508054516 59 122 2.0 6.0 0.00 0.00 0.00 64 1016.6
20260508053537 59 101 2.0 5.0 0.00 0.00 0.00 65 1016.4
20260508052518 59 98 3.0 11.0 0.00 0.00 0.00 65 1016.4
20260508051520 59 109 3.0 10.0 0.00 0.00 0.00 66 1016.4
20260508050521 59 91 3.0 8.0 0.00 0.00 0.00 67 1016.2
20260508045543 60 101 4.0 7.0 0.00 0.00 0.00 67 1016.4
20260508044604 60 91 2.0 4.0 0.00 0.00 0.00 67 1016.4
20260508043524 60 96 1.0 4.0 0.00 0.00 0.00 66 1016.4